Theta_e
323 323 321 320 317 312 307 303 301 299 297 295 294 294 293 291 290 289 288 287 288 288
321 317 313 309 307 304 301 298 296 295 291 291 291 291 289 288 287 287 286 286 286 286
313 308 306 304 300 298 296 294 293 289 289 288 289 289 287 286 285 285 285 285 284 284
303 302 301 298 296 295 293 291 289 288 287 286 286 286 285 284 284 283 283 283 283 283
298 297 295 294 293 292 290 288 287 286 285 284 284 284 284 283 283 282 282 282 282 281
294 294 293 291 289 288 286 285 285 284 283 283 283 283 283 283 283 283 283 282 282 281
292 291 290 288 286 285 284 284 283 283 282 282 282 283 283 283 283 282 282 283 282 282
288 288 287 285 284 283 283 282 282 281 281 281 282 284 283 283 282 282 281 282 282 282
286 284 284 283 283 282 282 281 281 281 280 280 282 287 287 284 282 282 281 281 281 281
284 283 283 282 282 281 280 280 280 280 280 279 280 286 287 286 282 282 281 281 282 282
283 282 281 280 280 280 279 279 279 279 279 278 281 285 286 285 282 281 281 281 281 280
282 281 280 279 279 279 279 277 277 278 275 276 277 284 285 283 280 281 280 281 281 280
282 281 280 279 279 278 277 277 277 277 274 274 274 282 283 282 280 276 278 279 279 281
279 279 279 278 277 276 276 274 272 274 274 274 275 277 281 282 280 278 276 275 276 278
Wind_Speed
11 8 6 6 8 6 5 6 5 6 6 7 7 6 6 5 4 5 5 6 5 3
8 9 8 9 8 6 7 6 7 7 7 6 7 7 6 5 5 5 5 5 5 3
9 10 9 10 10 9 8 7 8 8 7 7 6 6 6 5 4 6 4 3 5 3
9 11 10 10 10 10 9 9 8 8 7 7 6 6 6 6 5 6 5 4 5 5
10 11 11 11 10 10 10 7 8 7 7 7 6 6 6 6 5 5 5 4 5 5
9 9 13 11 11 11 9 8 7 7 7 7 6 6 6 5 5 4 5 5 5 4
9 9 10 11 11 10 8 8 7 6 7 6 6 5 5 5 4 5 4 4 5 4
8 9 10 11 10 8 8 6 7 7 6 6 5 3 5 4 4 5 5 4 2 1
10 9 9 9 9 8 8 7 7 6 6 6 3 6 6 5 4 4 3 3 3 3
10 10 9 9 9 8 8 7 6 6 6 5 4 6 6 6 4 4 3 3 2 2
10 10 8 8 8 7 6 6 5 5 4 5 3 6 5 7 4 3 3 2 3 4
11 12 10 9 8 5 6 4 3 4 5 5 2 6 6 6 3 3 2 2 4 4
10 10 10 9 8 4 4 5 4 5 4 4 3 4 5 4 2 2 1 1 4 7
9 10 9 9 4 6 7 6 5 5 3 4 3 1 3 5 2 1 1 2 3 4
Wind_Direction
190 191 162 152 148 147 139 135 121 110 107 99 96 90 87 84 89 99 89 80 71 85
168 150 144 128 122 124 119 125 125 121 108 102 99 101 101 104 97 87 80 73 59 63
150 133 134 131 126 130 126 124 129 110 111 109 109 112 105 92 87 89 73 74 64 45
138 133 127 128 129 136 130 136 125 122 123 120 113 112 103 97 89 83 80 61 62 54
134 134 131 129 137 131 131 116 126 125 118 116 114 108 106 98 89 96 85 69 54 44
133 154 131 138 136 119 127 124 120 126 129 128 123 115 99 111 105 95 77 60 52 36
145 143 138 135 124 128 128 127 126 124 123 123 123 115 117 111 115 84 72 63 53 41
127 129 128 124 122 120 120 128 125 121 110 114 115 127 120 118 97 75 54 46 46 331
135 129 129 125 123 124 124 128 123 121 129 125 117 118 106 115 92 76 63 16 356 338
140 137 136 132 133 136 131 124 127 128 129 129 131 108 104 95 96 78 45 12 348 315
142 138 137 138 136 131 132 133 129 120 123 121 101 107 104 91 84 70 49 17 331 310
154 151 151 145 136 125 122 116 122 132 126 125 115 111 96 99 97 83 36 349 321 308
154 148 147 141 138 122 122 127 122 116 110 115 111 94 95 101 113 64 22 318 280 293
145 147 144 132 117 129 122 113 111 114 107 104 96 35 70 54 75 30 325 304 285 265